Overview Statistics Trail Chart Weather Telemetry Raw packets
 

This is the latest recevied weather packets stored in our database for station/object Ostrach. If no packets are shown the sender has not sent any weather packets the latest 10 day(s).

<< 2 3 4 5 6 7 8 >>
Time Temp. Humidity Pressure Rain* Wind** Luminosity Snow
1788535931 30° C 37% 1012.4 hPa 0 mm - - -
1788534131 30.56° C 41% 1012.6 hPa 0 mm - - -
1788532330 30.56° C 40% 1013 hPa 0 mm - - -
1788530531 30° C 40% 1013.3 hPa 0 mm - - -
1788528730 29.44° C 41% 1013.7 hPa 0 mm - - -
1788526931 28.89° C 42% 1014.1 hPa 0 mm - - -
1788525130 28.89° C 46% 1014.4 hPa 0 mm - - -
1788523331 27.78° C 47% 1014.8 hPa 0 mm - - -
1788521530 27.22° C 47% 1015.2 hPa 0 mm - - -
1788519731 26.67° C 49% 1015.7 hPa 0 mm - - -
1788517930 26.11° C 48% 1016.3 hPa 0 mm - - -
1788516130 25.56° C 50% 1016.6 hPa 0 mm - - -
1788514330 25.56° C 51% 1017 hPa 0 mm - - -
1788512530 24.44° C 54% 1017.1 hPa 0 mm - - -
1788510730 24.44° C 53% 1017.2 hPa 0 mm - - -
1788508932 22.22° C 57% 1017.4 hPa 0 mm - - -
1788507130 20.56° C 64% 1017.7 hPa 0 mm - - -
1788505329 18.89° C 70% 1017.8 hPa 0 mm - - -
1788503530 16.11° C 80% 1017.9 hPa 0 mm - - -
1788501738 12.78° C 91% 1018.1 hPa 0 mm - - -
1788499929 12.22° C 89% 1018.1 hPa 0 mm - - -
1788498129 12.22° C 87% 1018.1 hPa 0 mm - - -
1788496329 12.78° C 86% 1018.3 hPa 0 mm - - -
1788494531 13.89° C 84% 1018.7 hPa 0 mm - - -
1788492730 14.44° C 83% 1018.9 hPa 0 mm - - -

* Rain since midnight (hover to see other rain measurements)
** Current wind speed in m/s (hover to see current wind gust speed)